Time,TemperatureF,DewpointF,PressureIn,WindDirection,WindDirectionDegrees,WindSpeedMPH,WindSpeedGustMPH,Humidity,HourlyPrecipIn,Conditions,Clouds,dailyrainin,SoftwareType,DateUTC
2013-01-16 00:00:00,35.5,21.8,30.14,NNW,340,1.0,5.0,57,0.00,,---,0.00,VWS V14.01,2013-01-16 05:00:00,
2013-01-16 00:01:00,35.5,21.8,30.13,NE,46,1.0,5.0,57,0.00,,---,0.00,VWS V14.01,2013-01-16 05:01:00,
2013-01-16 00:02:00,35.5,21.8,30.13,NNE,17,1.0,2.0,57,0.00,,---,0.00,VWS V14.01,2013-01-16 05:02:00,
2013-01-16 00:07:00,35.5,21.8,30.13,ENE,72,2.0,5.0,57,0.00,,---,0.00,VWS V14.01,2013-01-16 05:07:00,
2013-01-16 00:12:00,35.5,21.8,30.13,NE,40,3.0,5.0,57,0.00,,---,0.00,VWS V14.01,2013-01-16 05:12:00,
2013-01-16 00:17:00,35.5,21.8,30.12,ENE,66,1.0,5.0,57,0.00,,---,0.00,VWS V14.01,2013-01-16 05:17:00,
2013-01-16 00:22:00,35.5,21.8,30.12,North,11,4.0,5.0,57,0.00,,---,0.00,VWS V14.01,2013-01-16 05:22:00,
2013-01-16 00:27:00,35.5,21.8,30.12,NNE,24,3.0,7.0,57,0.00,,---,0.00,VWS V14.01,2013-01-16 05:27:00,
2013-01-16 00:30:00,35.5,22.2,30.12,NNE,25,1.0,7.0,58,0.00,,---,0.00,VWS V14.01,2013-01-16 05:30:00,
2013-01-16 00:32:00,35.5,22.2,30.12,NNW,337,0.0,3.0,58,0.00,,---,0.00,VWS V14.01,2013-01-16 05:32:00,
2013-01-16 00:37:00,35.5,22.6,30.12,North,360,2.0,7.0,59,0.00,,---,0.00,VWS V14.01,2013-01-16 05:37:00,
2013-01-16 00:42:00,35.5,22.6,30.12,NE,49,3.0,7.0,59,0.00,,---,0.00,VWS V14.01,2013-01-16 05:42:00,
2013-01-16 00:47:00,35.5,23.0,30.13,North,351,0.0,7.0,60,0.00,,---,0.00,VWS V14.01,2013-01-16 05:47:00,
2013-01-16 00:52:00,35.5,23.0,30.13,North,9,2.0,7.0,60,0.00,,---,0.00,VWS V14.01,2013-01-16 05:52:00,
2013-01-16 00:57:00,35.5,23.0,30.13,NNE,32,2.0,7.0,60,0.00,,---,0.00,VWS V14.01,2013-01-16 05:57:00,
2013-01-16 01:00:00,35.5,23.0,30.12,NNE,19,3.0,7.0,60,0.00,,---,0.00,VWS V14.01,2013-01-16 06:00:00,
2013-01-16 01:02:00,35.5,23.0,30.12,North,9,2.0,4.0,60,0.00,,---,0.00,VWS V14.01,2013-01-16 06:02:00,
2013-01-16 01:07:00,35.5,22.6,30.12,NE,38,0.0,5.0,59,0.00,,---,0.00,VWS V14.01,2013-01-16 06:07:00,
2013-01-16 01:12:00,35.6,23.1,30.12,NNE,12,1.0,5.0,60,0.00,,---,0.00,VWS V14.01,2013-01-16 06:12:00,
2013-01-16 01:17:00,35.6,23.1,30.12,North,355,2.0,5.0,60,0.00,,---,0.00,VWS V14.01,2013-01-16 06:17:00,
2013-01-16 01:22:00,35.5,23.0,30.12,NNE,15,2.0,5.0,60,0.00,,---,0.00,VWS V14.01,2013-01-16 06:22:00,
2013-01-16 01:27:00,35.5,23.0,30.12,North,360,4.0,5.0,60,0.00,,---,0.00,VWS V14.01,2013-01-16 06:27:00,
2013-01-16 01:30:00,35.3,22.8,30.12,ENE,67,3.0,5.0,60,0.00,,---,0.00,VWS V14.01,2013-01-16 06:30:00,
2013-01-16 01:32:00,35.3,22.8,30.12,NE,51,2.0,4.0,60,0.00,,---,0.00,VWS V14.01,2013-01-16 06:32:00,
2013-01-16 01:37:00,35.3,22.8,30.12,NE,51,0.0,4.0,60,0.00,,---,0.00,VWS V14.01,2013-01-16 06:37:00,
2013-01-16 01:42:00,35.3,22.8,30.12,NNE,23,1.0,4.0,60,0.00,,---,0.00,VWS V14.01,2013-01-16 06:42:00,
2013-01-16 01:47:00,35.3,22.8,30.12,North,11,0.0,4.0,60,0.00,,---,0.00,VWS V14.01,2013-01-16 06:47:00,
2013-01-16 01:52:00,35.3,22.8,30.12,NE,44,2.0,4.0,60,0.00,,---,0.00,VWS V14.01,2013-01-16 06:52:00,
2013-01-16 01:57:00,35.5,23.0,30.12,NE,34,1.0,4.0,60,0.00,,---,0.00,VWS V14.01,2013-01-16 06:57:00,
2013-01-16 02:00:00,35.5,23.0,30.11,NE,36,5.0,5.0,60,0.00,,---,0.00,VWS V14.01,2013-01-16 07:00:00,
2013-01-16 02:02:00,35.5,23.0,30.11,North,360,2.0,5.0,60,0.00,,---,0.00,VWS V14.01,2013-01-16 07:02:00,
2013-01-16 02:07:00,35.5,23.0,30.11,NE,43,4.0,5.0,60,0.00,,---,0.00,VWS V14.01,2013-01-16 07:07:00,
2013-01-16 02:12:00,35.6,23.1,30.11,NNE,28,3.0,6.0,60,0.00,,---,0.00,VWS V14.01,2013-01-16 07:12:00,
2013-01-16 02:17:00,35.6,23.1,30.11,NE,37,0.0,6.0,60,0.00,,---,0.00,VWS V14.01,2013-01-16 07:17:00,
2013-01-16 02:22:00,35.6,23.1,30.11,NNE,15,1.0,6.0,60,0.00,,---,0.00,VWS V14.01,2013-01-16 07:22:00,
2013-01-16 02:27:00,35.6,23.1,30.11,NE,37,1.0,6.0,60,0.00,,---,0.00,VWS V14.01,2013-01-16 07:27:00,
2013-01-16 02:30:00,35.6,23.1,30.11,NNE,32,0.0,6.0,60,0.00,,---,0.00,VWS V14.01,2013-01-16 07:30:00,
2013-01-16 02:32:00,35.6,23.1,30.11,NNE,32,0.0,0.0,60,0.00,,---,0.00,VWS V14.01,2013-01-16 07:32:00,
2013-01-16 02:37:00,35.5,23.0,30.11,NE,39,0.0,3.0,60,0.00,,---,0.00,VWS V14.01,2013-01-16 07:37:00,
2013-01-16 02:42:00,35.5,23.0,30.11,NE,52,0.0,4.0,60,0.00,,---,0.00,VWS V14.01,2013-01-16 07:42:00,
2013-01-16 02:47:00,35.5,23.0,30.11,ENE,75,2.0,4.0,60,0.00,,---,0.00,VWS V14.01,2013-01-16 07:47:00,
2013-01-16 02:52:00,35.5,23.0,30.11,NNE,28,0.0,4.0,60,0.00,,---,0.00,VWS V14.01,2013-01-16 07:52:00,
2013-01-16 02:57:00,35.5,23.0,30.11,NE,46,3.0,4.0,60,0.00,,---,0.00,VWS V14.01,2013-01-16 07:57:00,
2013-01-16 03:00:00,35.5,23.0,30.10,NNE,30,0.0,5.0,60,0.00,,---,0.00,VWS V14.01,2013-01-16 08:00:00,
2013-01-16 03:03:00,35.5,23.0,30.10,NNE,30,0.0,5.0,60,0.00,,---,0.00,VWS V14.01,2013-01-16 08:03:00,
2013-01-16 03:08:00,35.5,23.4,30.10,NE,40,1.0,5.0,61,0.00,,---,0.00,VWS V14.01,2013-01-16 08:08:00,
2013-01-16 03:13:00,35.5,23.4,30.10,North,360,2.0,5.0,61,0.00,,---,0.00,VWS V14.01,2013-01-16 08:13:00,
2013-01-16 03:18:00,35.5,23.4,30.10,NNW,346,3.0,5.0,61,0.00,,---,0.00,VWS V14.01,2013-01-16 08:18:00,
2013-01-16 03:23:00,35.5,23.4,30.10,NNW,345,0.0,5.0,61,0.00,,---,0.00,VWS V14.01,2013-01-16 08:23:00,
2013-01-16 03:28:00,35.3,23.2,30.10,NNE,30,1.0,5.0,61,0.00,,---,0.00,VWS V14.01,2013-01-16 08:28:00,
2013-01-16 03:30:00,35.3,23.2,30.08,North,360,2.0,5.0,61,0.00,,---,0.00,VWS V14.01,2013-01-16 08:30:00,
2013-01-16 03:33:00,35.3,23.2,30.08,NE,40,0.0,2.0,61,0.00,,---,0.00,VWS V14.01,2013-01-16 08:33:00,
2013-01-16 03:38:00,35.3,23.6,30.08,North,360,1.0,4.0,62,0.00,,---,0.00,VWS V14.01,2013-01-16 08:38:00,
2013-01-16 03:43:00,35.2,23.5,30.08,NNE,14,2.0,5.0,62,0.00,,---,0.00,VWS V14.01,2013-01-16 08:43:00,
2013-01-16 03:48:00,35.2,23.5,30.07,NNW,339,2.0,7.0,62,0.00,,---,0.00,VWS V14.01,2013-01-16 08:48:00,
2013-01-16 03:53:00,35.0,23.7,30.07,NNE,30,0.0,7.0,63,0.00,,---,0.00,VWS V14.01,2013-01-16 08:53:00,
2013-01-16 03:58:00,35.0,23.7,30.07,NNE,12,1.0,7.0,63,0.00,,---,0.00,VWS V14.01,2013-01-16 08:58:00,
2013-01-16 04:00:00,35.0,24.1,30.05,NNE,28,1.0,7.0,64,0.00,,---,0.00,VWS V14.01,2013-01-16 09:00:00,
2013-01-16 04:03:00,35.0,24.1,30.05,NNE,25,0.0,2.0,64,0.00,,---,0.00,VWS V14.01,2013-01-16 09:03:00,
2013-01-16 04:08:00,35.0,24.1,30.05,NNE,19,3.0,4.0,64,0.00,,---,0.00,VWS V14.01,2013-01-16 09:08:00,
2013-01-16 04:13:00,35.0,24.1,30.05,NNE,28,0.0,4.0,64,0.00,,---,0.00,VWS V14.01,2013-01-16 09:13:00,
2013-01-16 04:18:00,35.0,24.1,30.05,North,355,1.0,4.0,64,0.00,,---,0.00,VWS V14.01,2013-01-16 09:18:00,
2013-01-16 04:23:00,35.0,24.1,30.05,North,5,0.0,4.0,64,0.00,,---,0.00,VWS V14.01,2013-01-16 09:23:00,
2013-01-16 04:28:00,35.0,24.4,30.05,North,5,1.0,4.0,65,0.00,,---,0.00,VWS V14.01,2013-01-16 09:28:00,
2013-01-16 04:30:00,35.0,24.4,30.04,North,5,1.0,4.0,65,0.00,,---,0.00,VWS V14.01,2013-01-16 09:30:00,
2013-01-16 04:33:00,35.0,24.4,30.04,North,360,1.0,2.0,65,0.00,,---,0.00,VWS V14.01,2013-01-16 09:33:00,
2013-01-16 04:38:00,35.0,25.2,30.04,NE,40,4.0,6.0,67,0.00,,---,0.00,VWS V14.01,2013-01-16 09:38:00,
2013-01-16 04:43:00,34.7,25.2,30.04,North,355,3.0,6.0,68,0.00,,---,0.00,VWS V14.01,2013-01-16 09:43:00,
2013-01-16 04:48:00,34.7,26.3,30.04,NNE,24,1.0,6.0,71,0.00,,---,0.00,VWS V14.01,2013-01-16 09:48:00,
2013-01-16 04:53:00,34.4,26.7,30.04,NNW,340,1.0,6.0,73,0.00,,---,0.00,VWS V14.01,2013-01-16 09:53:00,
2013-01-16 04:58:00,34.0,26.9,30.04,NE,38,1.0,6.0,75,0.00,,---,0.00,VWS V14.01,2013-01-16 09:58:00,
2013-01-16 05:00:00,33.7,27.6,30.03,NE,51,1.0,6.0,78,0.00,,---,0.00,VWS V14.01,2013-01-16 10:00:00,
2013-01-16 05:03:00,33.5,27.4,30.03,NE,51,0.0,2.0,78,0.00,,---,0.00,VWS V14.01,2013-01-16 10:03:00,
2013-01-16 05:08:00,33.2,27.7,30.03,NE,51,0.0,2.0,80,0.00,,---,0.00,VWS V14.01,2013-01-16 10:08:00,
2013-01-16 05:13:00,33.1,28.2,30.03,ENE,62,2.0,3.0,82,0.00,,---,0.00,VWS V14.01,2013-01-16 10:13:00,
2013-01-16 05:18:00,32.9,28.3,30.04,North,360,2.0,5.0,83,0.00,,---,0.00,VWS V14.01,2013-01-16 10:18:00,
2013-01-16 05:23:00,32.9,28.9,30.04,NNE,30,1.0,5.0,85,0.00,,---,0.00,VWS V14.01,2013-01-16 10:23:00,
2013-01-16 05:28:00,32.8,28.8,30.04,NNE,28,2.0,5.0,85,0.00,,---,0.00,VWS V14.01,2013-01-16 10:28:00,
2013-01-16 05:30:00,32.7,29.0,30.03,NE,48,1.0,5.0,86,0.00,,---,0.00,VWS V14.01,2013-01-16 10:30:00,
2013-01-16 05:33:00,32.7,29.0,30.03,NE,49,1.0,2.0,86,0.00,,---,0.00,VWS V14.01,2013-01-16 10:33:00,
2013-01-16 05:38:00,32.5,29.1,30.03,North,9,1.0,3.0,87,0.00,,---,0.00,VWS V14.01,2013-01-16 10:38:00,
2013-01-16 05:43:00,32.4,29.2,30.03,NNE,30,1.0,3.0,88,0.00,,---,0.00,VWS V14.01,2013-01-16 10:43:00,
2013-01-16 05:47:00,32.4,29.5,30.03,NNE,24,0.0,3.0,89,0.00,,---,0.00,VWS V14.01,2013-01-16 10:47:00,
2013-01-16 05:52:00,32.4,29.5,30.03,NNW,335,0.0,3.0,89,0.00,,---,0.00,VWS V14.01,2013-01-16 10:52:00,
2013-01-16 05:57:00,32.2,29.3,30.03,North,355,2.0,3.0,89,0.00,,---,0.00,VWS V14.01,2013-01-16 10:57:00,
2013-01-16 06:00:00,32.2,29.6,30.03,North,9,2.0,4.0,90,0.00,,---,0.00,VWS V14.01,2013-01-16 11:00:00,
2013-01-16 06:02:00,32.1,29.5,30.03,North,351,0.0,3.0,90,0.00,,---,0.00,VWS V14.01,2013-01-16 11:02:00,
2013-01-16 06:07:00,32.1,29.5,30.03,NNW,327,1.0,4.0,90,0.00,,---,0.00,VWS V14.01,2013-01-16 11:07:00,
2013-01-16 06:12:00,31.8,29.5,30.03,NNW,348,0.0,4.0,91,0.00,,---,0.00,VWS V14.01,2013-01-16 11:12:00,
2013-01-16 06:17:00,31.6,29.3,30.02,North,360,3.0,4.0,91,0.00,,---,0.00,VWS V14.01,2013-01-16 11:17:00,
2013-01-16 06:22:00,31.5,29.2,30.02,NNW,338,0.0,4.0,91,0.00,,---,0.00,VWS V14.01,2013-01-16 11:22:00,
2013-01-16 06:27:00,31.3,29.2,30.02,NNW,348,1.0,5.0,92,0.00,,---,0.00,VWS V14.01,2013-01-16 11:27:00,
2013-01-16 06:30:00,31.3,29.2,30.01,North,10,2.0,5.0,92,0.00,,---,0.00,VWS V14.01,2013-01-16 11:30:00,
2013-01-16 06:32:00,31.3,29.2,30.01,North,360,0.0,2.0,92,0.00,,---,0.00,VWS V14.01,2013-01-16 11:32:00,
2013-01-16 06:37:00,31.3,29.2,30.01,NNE,15,3.0,4.0,92,0.00,,---,0.00,VWS V14.01,2013-01-16 11:37:00,
2013-01-16 06:42:00,31.2,29.1,30.01,NNW,342,1.0,4.0,92,0.00,,---,0.00,VWS V14.01,2013-01-16 11:42:00,
2013-01-16 06:47:00,31.2,29.4,30.00,NNE,13,0.0,4.0,93,0.00,,---,0.00,VWS V14.01,2013-01-16 11:47:00,
2013-01-16 06:52:00,31.2,29.4,30.00,North,360,0.0,4.0,93,0.00,,---,0.00,VWS V14.01,2013-01-16 11:52:00,
2013-01-16 06:57:00,31.2,29.4,30.00,NNW,338,1.0,4.0,93,0.00,,---,0.00,VWS V14.01,2013-01-16 11:57:00,
2013-01-16 07:00:00,31.2,29.4,29.99,NNW,336,1.0,6.0,93,0.00,,---,0.00,VWS V14.01,2013-01-16 12:00:00,
2013-01-16 07:02:00,31.2,29.4,29.99,NNW,337,3.0,4.0,93,0.00,,---,0.00,VWS V14.01,2013-01-16 12:02:00,
2013-01-16 07:07:00,31.0,29.2,29.99,NNW,335,2.0,6.0,93,0.00,,---,0.00,VWS V14.01,2013-01-16 12:07:00,
2013-01-16 07:12:00,30.9,29.4,29.99,NNW,343,1.0,7.0,94,0.00,,---,0.00,VWS V14.01,2013-01-16 12:12:00,
2013-01-16 07:17:00,31.0,29.5,30.00,NNW,327,4.0,7.0,94,0.00,,---,0.00,VWS V14.01,2013-01-16 12:17:00,
2013-01-16 07:22:00,30.9,29.4,30.00,NNW,336,5.0,9.0,94,0.00,,---,0.00,VWS V14.01,2013-01-16 12:22:00,
2013-01-16 07:27:00,30.7,29.2,30.00,NNW,346,4.0,9.0,94,0.00,,---,0.00,VWS V14.01,2013-01-16 12:27:00,
2013-01-16 07:30:00,30.6,29.1,30.00,NNW,334,0.0,9.0,94,0.00,,---,0.00,VWS V14.01,2013-01-16 12:30:00,
2013-01-16 07:32:00,30.6,29.3,30.00,NNW,333,0.0,0.0,95,0.00,,---,0.00,VWS V14.01,2013-01-16 12:32:00,
2013-01-16 07:37:00,30.6,29.3,30.00,NNW,329,1.0,5.0,95,0.00,,---,0.00,VWS V14.01,2013-01-16 12:37:00,
2013-01-16 07:42:00,30.6,29.3,30.00,NNW,348,1.0,5.0,95,0.00,,---,0.00,VWS V14.01,2013-01-16 12:42:00,
2013-01-16 07:47:00,30.6,29.3,29.99,NNW,341,2.0,5.0,95,0.00,,---,0.00,VWS V14.01,2013-01-16 12:47:00,
2013-01-16 07:52:00,30.6,29.3,29.99,NNW,344,0.0,5.0,95,0.00,,---,0.00,VWS V14.01,2013-01-16 12:52:00,
2013-01-16 07:57:00,30.6,29.3,29.99,North,360,2.0,5.0,95,0.00,,---,0.00,VWS V14.01,2013-01-16 12:57:00,
2013-01-16 08:00:00,30.6,29.3,29.98,NNE,14,3.0,5.0,95,0.00,,---,0.00,VWS V14.01,2013-01-16 13:00:00,
2013-01-16 08:02:00,30.6,29.3,29.98,NNE,15,2.0,3.0,95,0.00,,---,0.00,VWS V14.01,2013-01-16 13:02:00,
2013-01-16 08:07:00,30.6,29.3,29.98,North,360,0.0,4.0,95,0.00,,---,0.00,VWS V14.01,2013-01-16 13:07:00,
2013-01-16 08:12:00,30.6,29.3,29.98,NE,37,0.0,4.0,95,0.00,,---,0.00,VWS V14.01,2013-01-16 13:12:00,
2013-01-16 08:17:00,30.6,29.3,29.97,NNE,23,3.0,4.0,95,0.00,,---,0.00,VWS V14.01,2013-01-16 13:17:00,
2013-01-16 08:22:00,30.6,29.3,29.97,NW,326,3.0,4.0,95,0.00,,---,0.00,VWS V14.01,2013-01-16 13:22:00,
2013-01-16 08:27:00,30.7,29.4,29.97,NNE,17,0.0,4.0,95,0.00,,---,0.00,VWS V14.01,2013-01-16 13:27:00,
2013-01-16 08:30:00,30.7,29.4,29.97,North,360,0.0,4.0,95,0.00,,---,0.00,VWS V14.01,2013-01-16 13:30:00,
2013-01-16 08:32:00,30.7,29.4,29.97,NNW,342,2.0,3.0,95,0.00,,---,0.00,VWS V14.01,2013-01-16 13:32:00,
2013-01-16 08:37:00,30.7,29.4,29.97,North,351,0.0,4.0,95,0.00,,---,0.00,VWS V14.01,2013-01-16 13:37:00,
2013-01-16 08:42:00,30.7,29.4,29.97,North,5,1.0,4.0,95,0.00,,---,0.00,VWS V14.01,2013-01-16 13:42:00,
2013-01-16 08:47:00,30.9,29.6,29.97,North,360,1.0,4.0,95,0.00,,---,0.00,VWS V14.01,2013-01-16 13:47:00,
2013-01-16 08:52:00,30.9,29.6,29.97,North,11,0.0,4.0,95,0.00,,---,0.00,VWS V14.01,2013-01-16 13:52:00,
2013-01-16 08:57:00,30.9,29.9,29.97,North,10,1.0,4.0,96,0.00,,---,0.00,VWS V14.01,2013-01-16 13:57:00,
2013-01-16 09:00:00,31.0,30.0,29.97,North,10,0.0,4.0,96,0.00,,---,0.00,VWS V14.01,2013-01-16 14:00:00,
2013-01-16 09:02:00,31.0,30.0,29.97,North,10,0.0,0.0,96,0.00,,---,0.00,VWS V14.01,2013-01-16 14:02:00,
2013-01-16 09:07:00,31.0,30.0,29.97,North,360,0.0,0.0,96,0.00,,---,0.00,VWS V14.01,2013-01-16 14:07:00,
2013-01-16 09:12:00,31.2,30.2,29.97,North,360,0.0,0.0,96,0.00,,---,0.00,VWS V14.01,2013-01-16 14:12:00,
2013-01-16 09:17:00,31.2,30.2,29.96,North,360,0.0,0.0,96,0.00,,---,0.00,VWS V14.01,2013-01-16 14:17:00,
2013-01-16 09:22:00,31.3,30.3,29.96,North,360,0.0,0.0,96,0.00,,---,0.00,VWS V14.01,2013-01-16 14:22:00,
2013-01-16 09:27:00,31.3,30.3,29.96,North,360,0.0,0.0,96,0.00,,---,0.00,VWS V14.01,2013-01-16 14:27:00,
2013-01-16 09:30:00,31.3,30.3,29.94,North,360,0.0,0.0,96,0.00,,---,0.00,VWS V14.01,2013-01-16 14:30:00,
2013-01-16 09:32:00,31.3,30.3,29.94,North,360,0.0,0.0,96,0.00,,---,0.00,VWS V14.01,2013-01-16 14:32:00,
2013-01-16 09:37:00,31.3,30.3,29.94,North,360,0.0,0.0,96,0.00,,---,0.00,VWS V14.01,2013-01-16 14:37:00,
2013-01-16 09:42:00,31.5,30.5,29.94,NNE,19,0.0,0.0,96,0.00,,---,0.00,VWS V14.01,2013-01-16 14:42:00,
2013-01-16 09:47:00,31.5,30.5,29.92,NNE,22,0.0,0.0,96,0.00,,---,0.00,VWS V14.01,2013-01-16 14:47:00,
2013-01-16 09:52:00,31.6,30.6,29.92,NE,42,0.0,0.0,96,0.00,,---,0.00,VWS V14.01,2013-01-16 14:52:00,
2013-01-16 09:57:00,31.8,30.8,29.92,NE,42,0.0,0.0,96,0.00,,---,0.00,VWS V14.01,2013-01-16 14:57:00,
2013-01-16 10:00:00,31.6,30.6,29.90,NNE,25,0.0,0.0,96,0.00,,---,0.00,VWS V14.01,2013-01-16 15:00:00,
2013-01-16 10:02:00,31.6,30.6,29.90,NNE,26,0.0,0.0,96,0.00,,---,0.00,VWS V14.01,2013-01-16 15:02:00,
2013-01-16 10:07:00,31.8,30.8,29.90,ENE,59,0.0,0.0,96,0.00,,---,0.00,VWS V14.01,2013-01-16 15:07:00,
2013-01-16 10:12:00,32.1,31.1,29.90,NE,46,0.0,0.0,96,0.00,,---,0.00,VWS V14.01,2013-01-16 15:12:00,
2013-01-16 10:17:00,32.2,31.2,29.88,ESE,105,0.0,0.0,96,0.00,,---,0.00,VWS V14.01,2013-01-16 15:17:00,
2013-01-16 10:22:00,32.5,31.5,29.88,NE,51,0.0,0.0,96,0.00,,---,0.00,VWS V14.01,2013-01-16 15:22:00,
2013-01-16 10:27:00,32.7,31.7,29.88,ENE,69,0.0,0.0,96,0.00,,---,0.00,VWS V14.01,2013-01-16 15:27:00,
2013-01-16 10:30:00,32.8,31.8,29.87,East,86,0.0,0.0,96,0.00,,---,0.00,VWS V14.01,2013-01-16 15:30:00,
2013-01-16 10:32:00,32.8,31.8,29.87,East,86,0.0,0.0,96,0.00,,---,0.00,VWS V14.01,2013-01-16 15:32:00,
2013-01-16 10:37:00,33.1,32.1,29.87,East,84,0.0,0.0,96,0.00,,---,0.00,VWS V14.01,2013-01-16 15:37:00,
2013-01-16 10:42:00,33.2,32.2,29.87,East,83,0.0,0.0,96,0.00,,---,0.00,VWS V14.01,2013-01-16 15:42:00,
2013-01-16 10:47:00,33.5,32.7,29.85,ENE,75,0.0,0.0,97,0.00,,---,0.00,VWS V14.01,2013-01-16 15:47:00,
2013-01-16 10:52:00,33.7,32.9,29.85,NE,51,0.0,2.0,97,0.00,,---,0.00,VWS V14.01,2013-01-16 15:52:00,
2013-01-16 10:57:00,33.8,33.0,29.85,NNE,33,3.0,5.0,97,0.00,,---,0.00,VWS V14.01,2013-01-16 15:57:00,
2013-01-16 11:00:00,34.0,33.2,29.86,NNE,21,1.0,5.0,97,0.00,,---,0.00,VWS V14.01,2013-01-16 16:00:00,
2013-01-16 11:02:00,34.0,33.2,29.86,NNE,21,1.0,5.0,97,0.00,,---,0.00,VWS V14.01,2013-01-16 16:02:00,
2013-01-16 11:07:00,34.0,33.2,29.86,NNE,28,2.0,5.0,97,0.00,,---,0.00,VWS V14.01,2013-01-16 16:07:00,
2013-01-16 11:12:00,33.8,33.0,29.86,North,360,0.0,5.0,97,0.00,,---,0.00,VWS V14.01,2013-01-16 16:12:00,
2013-01-16 11:17:00,33.8,33.0,29.85,NNW,348,5.0,5.0,97,0.00,,---,0.00,VWS V14.01,2013-01-16 16:17:00,
2013-01-16 11:22:00,33.7,32.9,29.85,NNE,22,2.0,5.0,97,0.00,,---,0.00,VWS V14.01,2013-01-16 16:22:00,
2013-01-16 11:27:00,33.7,32.9,29.85,NE,50,3.0,5.0,97,0.00,,---,0.00,VWS V14.01,2013-01-16 16:27:00,
2013-01-16 11:30:00,33.7,32.9,29.83,NNE,13,1.0,5.0,97,0.00,,---,0.00,VWS V14.01,2013-01-16 16:30:00,
2013-01-16 11:32:00,33.7,32.9,29.83,NNE,13,2.0,5.0,97,0.00,,---,0.00,VWS V14.01,2013-01-16 16:32:00,
2013-01-16 11:37:00,33.7,32.9,29.83,North,349,3.0,4.0,97,0.00,,---,0.00,VWS V14.01,2013-01-16 16:37:00,
2013-01-16 11:42:00,33.8,33.0,29.83,NNW,341,3.0,4.0,97,0.00,,---,0.00,VWS V14.01,2013-01-16 16:42:00,
2013-01-16 11:47:00,33.8,33.0,29.82,North,350,1.0,5.0,97,0.00,,---,0.00,VWS V14.01,2013-01-16 16:47:00,
2013-01-16 11:52:00,33.8,33.0,29.82,North,351,3.0,5.0,97,0.00,,---,0.00,VWS V14.01,2013-01-16 16:52:00,
2013-01-16 11:57:00,33.8,33.0,29.82,NNW,342,1.0,5.0,97,0.00,,---,0.00,VWS V14.01,2013-01-16 16:57:00,
2013-01-16 12:00:00,33.8,33.0,29.81,NNW,348,1.0,5.0,97,0.00,,---,0.00,VWS V14.01,2013-01-16 17:00:00,
2013-01-16 12:02:00,33.8,33.0,29.81,North,351,2.0,5.0,97,0.00,,---,0.00,VWS V14.01,2013-01-16 17:02:00,
2013-01-16 12:07:00,33.8,33.0,29.81,North,360,1.0,3.0,97,0.00,,---,0.00,VWS V14.01,2013-01-16 17:07:00,
2013-01-16 12:12:00,34.0,33.5,29.81,North,11,3.0,5.0,98,0.00,,---,0.00,VWS V14.01,2013-01-16 17:12:00,
2013-01-16 12:16:00,34.0,33.2,29.81,NW,309,3.0,7.0,97,0.01,,---,0.01,VWS V14.01,2013-01-16 17:16:00,
2013-01-16 12:21:00,33.8,33.0,29.81,NNW,348,9.0,9.0,97,0.01,,---,0.01,VWS V14.01,2013-01-16 17:21:00,
2013-01-16 12:26:00,33.8,33.3,29.81,NE,53,2.0,9.0,98,0.01,,---,0.01,VWS V14.01,2013-01-16 17:26:00,
2013-01-16 12:30:00,33.8,33.3,29.80,NNW,337,2.0,9.0,98,0.02,,---,0.02,VWS V14.01,2013-01-16 17:30:00,
2013-01-16 12:31:00,33.8,33.3,29.80,NW,321,5.0,9.0,98,0.02,,---,0.02,VWS V14.01,2013-01-16 17:31:00,
2013-01-16 12:36:00,33.7,33.2,29.80,North,10,4.0,9.0,98,0.02,,---,0.02,VWS V14.01,2013-01-16 17:36:00,
2013-01-16 12:41:00,33.5,33.0,29.80,NNE,27,4.0,10.0,98,0.03,,---,0.03,VWS V14.01,2013-01-16 17:41:00,
2013-01-16 12:46:00,33.5,33.0,29.78,NNE,27,2.0,10.0,98,0.03,,---,0.03,VWS V14.01,2013-01-16 17:46:00,
2013-01-16 12:51:00,33.7,33.2,29.78,North,360,3.0,10.0,98,0.03,,---,0.03,VWS V14.01,2013-01-16 17:51:00,
2013-01-16 12:56:00,33.7,33.2,29.78,North,9,4.0,10.0,98,0.04,,---,0.04,VWS V14.01,2013-01-16 17:56:00,
2013-01-16 13:00:00,33.7,33.2,29.78,NNE,22,2.0,10.0,98,0.05,,---,0.05,VWS V14.01,2013-01-16 18:00:00,
2013-01-16 13:01:00,33.7,33.2,29.78,NNE,29,3.0,10.0,98,0.05,,---,0.05,VWS V14.01,2013-01-16 18:01:00,
2013-01-16 13:06:00,33.8,33.3,29.78,NE,36,3.0,8.0,98,0.05,,---,0.05,VWS V14.01,2013-01-16 18:06:00,
2013-01-16 13:11:00,33.8,33.3,29.78,NNE,30,0.0,8.0,98,0.05,,---,0.05,VWS V14.01,2013-01-16 18:11:00,
2013-01-16 13:16:00,33.8,33.8,29.79,NNW,346,4.0,8.0,100,0.05,,---,0.05,VWS V14.01,2013-01-16 18:16:00,
2013-01-16 13:21:00,33.8,33.3,29.79,NW,304,3.0,8.0,98,0.06,,---,0.06,VWS V14.01,2013-01-16 18:21:00,
2013-01-16 13:26:00,33.8,33.3,29.79,NE,46,0.0,8.0,98,0.06,,---,0.06,VWS V14.01,2013-01-16 18:26:00,
2013-01-16 13:30:00,33.8,33.3,29.78,NNE,18,3.0,8.0,98,0.07,,---,0.07,VWS V14.01,2013-01-16 18:30:00,
2013-01-16 13:31:00,33.8,33.3,29.78,NNW,342,4.0,8.0,98,0.07,,---,0.07,VWS V14.01,2013-01-16 18:31:00,
2013-01-16 13:36:00,33.8,33.3,29.78,NE,42,3.0,7.0,98,0.05,,---,0.07,VWS V14.01,2013-01-16 18:36:00,
2013-01-16 13:41:00,33.8,33.3,29.78,North,355,1.0,9.0,98,0.05,,---,0.07,VWS V14.01,2013-01-16 18:41:00,
2013-01-16 13:46:00,33.8,33.3,29.77,ENE,67,1.0,9.0,98,0.05,,---,0.07,VWS V14.01,2013-01-16 18:46:00,
2013-01-16 13:51:00,33.8,33.3,29.77,NNW,333,2.0,9.0,98,0.05,,---,0.07,VWS V14.01,2013-01-16 18:51:00,
2013-01-16 13:56:00,33.8,33.3,29.77,NNE,15,3.0,10.0,98,0.06,,---,0.08,VWS V14.01,2013-01-16 18:56:00,
2013-01-16 14:00:00,33.8,33.3,29.75,North,9,2.0,10.0,98,0.06,,---,0.08,VWS V14.01,2013-01-16 19:00:00,
2013-01-16 14:01:00,33.8,33.3,29.75,NNE,15,5.0,10.0,98,0.06,,---,0.08,VWS V14.01,2013-01-16 19:01:00,
2013-01-16 14:06:00,33.8,33.3,29.75,North,360,7.0,10.0,98,0.03,,---,0.08,VWS V14.01,2013-01-16 19:06:00,
2013-01-16 14:11:00,33.8,33.3,29.75,ESE,107,2.0,10.0,98,0.04,,---,0.09,VWS V14.01,2013-01-16 19:11:00,
2013-01-16 14:16:00,33.8,33.3,29.72,NE,43,0.0,10.0,98,0.04,,---,0.09,VWS V14.01,2013-01-16 19:16:00,
2013-01-16 14:21:00,33.8,33.3,29.72,NE,42,5.0,12.0,98,0.04,,---,0.09,VWS V14.01,2013-01-16 19:21:00,
2013-01-16 14:26:00,34.0,33.5,29.72,ENE,61,6.0,12.0,98,0.04,,---,0.09,VWS V14.01,2013-01-16 19:26:00,
2013-01-16 14:30:00,34.0,33.5,29.70,NNE,20,6.0,12.0,98,0.04,,---,0.09,VWS V14.01,2013-01-16 19:30:00,
2013-01-16 14:31:00,34.0,34.0,29.70,NNE,12,2.0,12.0,100,0.04,,---,0.09,VWS V14.01,2013-01-16 19:31:00,
2013-01-16 14:36:00,34.0,33.5,29.70,NNE,23,3.0,7.0,98,0.02,,---,0.09,VWS V14.01,2013-01-16 19:36:00,
2013-01-16 14:41:00,34.1,33.6,29.70,NE,44,3.0,7.0,98,0.03,,---,0.10,VWS V14.01,2013-01-16 19:41:00,
2013-01-16 14:46:00,34.1,33.6,29.69,NNE,30,2.0,7.0,98,0.03,,---,0.10,VWS V14.01,2013-01-16 19:46:00,
2013-01-16 14:51:00,34.1,33.8,29.69,North,360,5.0,7.0,99,0.03,,---,0.10,VWS V14.01,2013-01-16 19:51:00,
2013-01-16 14:56:00,34.1,33.6,29.69,NW,325,0.0,9.0,98,0.03,,---,0.10,VWS V14.01,2013-01-16 19:56:00,
2013-01-16 15:00:00,34.1,33.6,29.71,North,5,1.0,9.0,98,0.04,,---,0.11,VWS V14.01,2013-01-16 20:00:00,
2013-01-16 15:01:00,34.1,33.6,29.71,NNW,333,3.0,9.0,98,0.04,,---,0.11,VWS V14.01,2013-01-16 20:01:00,
2013-01-16 15:06:00,34.0,33.5,29.71,North,355,4.0,5.0,98,0.03,,---,0.11,VWS V14.01,2013-01-16 20:06:00,
2013-01-16 15:11:00,33.8,33.3,29.71,NW,323,2.0,5.0,98,0.03,,---,0.11,VWS V14.01,2013-01-16 20:11:00,
2013-01-16 15:16:00,33.7,33.2,29.71,NNW,330,4.0,7.0,98,0.03,,---,0.11,VWS V14.01,2013-01-16 20:16:00,
2013-01-16 15:21:00,33.7,33.2,29.71,NNW,343,6.0,7.0,98,0.03,,---,0.11,VWS V14.01,2013-01-16 20:21:00,
2013-01-16 15:26:00,33.7,33.5,29.71,NW,324,3.0,7.0,99,0.03,,---,0.11,VWS V14.01,2013-01-16 20:26:00,
2013-01-16 15:30:00,33.8,33.5,29.73,NNW,338,11.0,16.0,99,0.03,,---,0.11,VWS V14.01,2013-01-16 20:30:00,
2013-01-16 15:31:00,33.8,33.5,29.73,NW,323,9.0,13.0,99,0.03,,---,0.11,VWS V14.01,2013-01-16 20:31:00,
2013-01-16 15:36:00,33.8,33.5,29.73,NW,326,7.0,13.0,99,0.02,,---,0.11,VWS V14.01,2013-01-16 20:36:00,
2013-01-16 15:41:00,33.8,33.8,29.73,NW,313,5.0,13.0,100,0.02,,---,0.11,VWS V14.01,2013-01-16 20:41:00,
2013-01-16 15:46:00,33.8,33.5,29.72,NNW,338,7.0,13.0,99,0.03,,---,0.12,VWS V14.01,2013-01-16 20:46:00,
2013-01-16 15:51:00,33.8,33.5,29.72,NW,319,1.0,13.0,99,0.03,,---,0.12,VWS V14.01,2013-01-16 20:51:00,
2013-01-16 15:56:00,33.7,33.5,29.72,NNW,341,5.0,13.0,99,0.03,,---,0.12,VWS V14.01,2013-01-16 20:56:00,
2013-01-16 16:00:00,33.7,33.5,29.72,NNW,331,5.0,13.0,99,0.03,,---,0.12,VWS V14.01,2013-01-16 21:00:00,
2013-01-16 16:01:00,33.7,33.5,29.72,NNW,343,3.0,13.0,99,0.03,,---,0.12,VWS V14.01,2013-01-16 21:01:00,
2013-01-16 16:06:00,33.7,33.5,29.72,NNW,337,6.0,8.0,99,0.02,,---,0.13,VWS V14.01,2013-01-16 21:06:00,
2013-01-16 16:11:00,33.8,33.5,29.72,NNW,328,2.0,9.0,99,0.02,,---,0.13,VWS V14.01,2013-01-16 21:11:00,
2013-01-16 16:16:00,33.8,33.5,29.71,NNW,333,4.0,9.0,99,0.02,,---,0.13,VWS V14.01,2013-01-16 21:16:00,
2013-01-16 16:21:00,33.7,33.5,29.71,North,355,6.0,9.0,99,0.02,,---,0.13,VWS V14.01,2013-01-16 21:21:00,
2013-01-16 16:26:00,33.7,33.5,29.71,NNW,340,6.0,13.0,99,0.02,,---,0.13,VWS V14.01,2013-01-16 21:26:00,
2013-01-16 16:30:00,33.5,33.2,29.72,NNW,336,4.0,13.0,99,0.02,,---,0.13,VWS V14.01,2013-01-16 21:30:00,
2013-01-16 16:31:00,33.5,33.2,29.71,NNW,344,8.0,13.0,99,0.02,,---,0.13,VWS V14.01,2013-01-16 21:31:00,
2013-01-16 16:36:00,33.4,33.2,29.72,NNW,345,5.0,13.0,99,0.02,,---,0.13,VWS V14.01,2013-01-16 21:36:00,
2013-01-16 16:41:00,33.2,33.0,29.72,NNW,328,5.0,13.0,99,0.02,,---,0.13,VWS V14.01,2013-01-16 21:41:00,
2013-01-16 16:46:00,33.4,33.2,29.72,NW,318,5.0,13.0,99,0.02,,---,0.13,VWS V14.01,2013-01-16 21:46:00,
2013-01-16 16:51:00,33.4,33.2,29.72,NNW,336,3.0,13.0,99,0.02,,---,0.13,VWS V14.01,2013-01-16 21:51:00,
2013-01-16 16:56:00,33.4,33.2,29.72,NW,313,4.0,13.0,99,0.03,,---,0.14,VWS V14.01,2013-01-16 21:56:00,
2013-01-16 17:00:00,33.2,33.0,29.71,NNW,328,4.0,13.0,99,0.03,,---,0.14,VWS V14.01,2013-01-16 22:00:00,
2013-01-16 17:01:00,33.2,33.0,29.71,NNW,330,7.0,13.0,99,0.03,,---,0.14,VWS V14.01,2013-01-16 22:01:00,
2013-01-16 17:06:00,33.2,33.0,29.71,NNW,336,5.0,10.0,99,0.02,,---,0.14,VWS V14.01,2013-01-16 22:06:00,
2013-01-16 17:11:00,33.4,33.2,29.71,NNW,329,4.0,10.0,99,0.02,,---,0.14,VWS V14.01,2013-01-16 22:11:00,
2013-01-16 17:16:00,33.4,33.2,29.73,NNW,338,4.0,11.0,99,0.02,,---,0.14,VWS V14.01,2013-01-16 22:16:00,
2013-01-16 17:21:00,33.4,33.2,29.73,NNW,329,6.0,11.0,99,0.02,,---,0.14,VWS V14.01,2013-01-16 22:21:00,
2013-01-16 17:26:00,33.5,33.2,29.73,NNW,329,6.0,11.0,99,0.02,,---,0.14,VWS V14.01,2013-01-16 22:26:00,
2013-01-16 17:30:00,33.5,33.2,29.73,NNW,329,9.0,11.0,99,0.02,,---,0.14,VWS V14.01,2013-01-16 22:30:00,
2013-01-16 17:31:00,33.5,33.2,29.73,North,360,9.0,11.0,99,0.02,,---,0.14,VWS V14.01,2013-01-16 22:31:00,
2013-01-16 17:36:00,33.5,33.2,29.73,NNW,331,5.0,11.0,99,0.01,,---,0.14,VWS V14.01,2013-01-16 22:36:00,
2013-01-16 17:41:00,33.4,33.2,29.73,NNW,343,5.0,11.0,99,0.01,,---,0.14,VWS V14.01,2013-01-16 22:41:00,
2013-01-16 17:46:00,33.4,33.2,29.72,NW,317,6.0,11.0,99,0.01,,---,0.14,VWS V14.01,2013-01-16 22:46:00,
2013-01-16 17:51:00,33.4,33.2,29.72,NW,319,4.0,11.0,99,0.01,,---,0.14,VWS V14.01,2013-01-16 22:51:00,
2013-01-16 17:56:00,33.4,33.2,29.72,NW,321,1.0,11.0,99,0.01,,---,0.14,VWS V14.01,2013-01-16 22:56:00,
2013-01-16 18:00:00,33.4,33.2,29.72,NW,316,3.0,11.0,99,0.01,,---,0.14,VWS V14.01,2013-01-16 23:00:00,
2013-01-16 18:01:00,33.4,33.2,29.72,NW,314,3.0,11.0,99,0.01,,---,0.14,VWS V14.01,2013-01-16 23:01:00,
2013-01-16 18:06:00,33.4,33.2,29.72,NW,313,4.0,6.0,99,0.00,,---,0.14,VWS V14.01,2013-01-16 23:06:00,
2013-01-16 18:11:00,33.5,33.2,29.72,NW,326,3.0,6.0,99,0.00,,---,0.14,VWS V14.01,2013-01-16 23:11:00,
2013-01-16 18:16:00,33.5,33.2,29.72,NW,320,3.0,6.0,99,0.00,,---,0.14,VWS V14.01,2013-01-16 23:16:00,
2013-01-16 18:21:00,33.4,33.2,29.72,NW,314,3.0,6.0,99,0.00,,---,0.14,VWS V14.01,2013-01-16 23:21:00,
2013-01-16 18:26:00,33.5,33.2,29.72,NNW,336,4.0,6.0,99,0.00,,---,0.14,VWS V14.01,2013-01-16 23:26:00,
2013-01-16 18:30:00,33.5,33.2,29.72,NW,317,4.0,7.0,99,0.01,,---,0.15,VWS V14.01,2013-01-16 23:30:00,
2013-01-16 18:31:00,33.5,33.2,29.72,WNW,298,3.0,7.0,99,0.01,,---,0.15,VWS V14.01,2013-01-16 23:31:00,
2013-01-16 18:36:00,33.4,33.2,29.72,WNW,296,4.0,7.0,99,0.01,,---,0.15,VWS V14.01,2013-01-16 23:36:00,
2013-01-16 18:41:00,33.4,33.2,29.72,WNW,300,5.0,7.0,99,0.01,,---,0.15,VWS V14.01,2013-01-16 23:41:00,
2013-01-16 18:46:00,33.4,33.2,29.72,WNW,295,4.0,8.0,99,0.01,,---,0.15,VWS V14.01,2013-01-16 23:46:00,
2013-01-16 18:51:00,33.4,33.2,29.73,WNW,303,1.0,9.0,99,0.01,,---,0.15,VWS V14.01,2013-01-16 23:51:00,
2013-01-16 18:56:00,33.2,33.0,29.73,NNW,327,3.0,10.0,99,0.01,,---,0.15,VWS V14.01,2013-01-16 23:56:00,
2013-01-16 19:00:00,33.2,33.0,29.72,NW,304,5.0,10.0,99,0.01,,---,0.15,VWS V14.01,2013-01-17 00:00:00,
2013-01-16 19:01:00,33.2,33.0,29.73,NW,318,4.0,10.0,99,0.01,,---,0.15,VWS V14.01,2013-01-17 00:01:00,
2013-01-16 19:06:00,33.2,33.0,29.72,NW,304,4.0,6.0,99,0.01,,---,0.15,VWS V14.01,2013-01-17 00:06:00,
2013-01-16 19:11:00,33.1,32.6,29.72,NW,324,1.0,9.0,98,0.01,,---,0.15,VWS V14.01,2013-01-17 00:11:00,
2013-01-16 19:16:00,33.1,32.6,29.72,NW,305,3.0,9.0,98,0.01,,---,0.15,VWS V14.01,2013-01-17 00:16:00,
2013-01-16 19:21:00,33.1,32.6,29.71,NW,311,5.0,9.0,98,0.01,,---,0.15,VWS V14.01,2013-01-17 00:21:00,
2013-01-16 19:26:00,33.1,32.6,29.71,NW,317,3.0,9.0,98,0.01,,---,0.15,VWS V14.01,2013-01-17 00:26:00,
2013-01-16 19:30:00,33.1,32.6,29.71,WNW,288,5.0,9.0,98,0.01,,---,0.15,VWS V14.01,2013-01-17 00:30:00,
2013-01-16 19:31:00,33.1,32.6,29.71,WNW,297,3.0,9.0,98,0.01,,---,0.15,VWS V14.01,2013-01-17 00:31:00,
2013-01-16 19:36:00,32.9,32.4,29.71,WNW,302,2.0,7.0,98,0.00,,---,0.15,VWS V14.01,2013-01-17 00:36:00,
2013-01-16 19:41:00,32.8,32.3,29.71,WNW,290,5.0,7.0,98,0.00,,---,0.15,VWS V14.01,2013-01-17 00:41:00,
2013-01-16 19:46:00,32.9,32.4,29.71,West,281,3.0,7.0,98,0.00,,---,0.15,VWS V14.01,2013-01-17 00:46:00,
2013-01-16 19:51:00,32.9,32.4,29.71,NW,326,3.0,7.0,98,0.00,,---,0.15,VWS V14.01,2013-01-17 00:51:00,
2013-01-16 19:56:00,33.1,32.6,29.71,WNW,286,2.0,7.0,98,0.00,,---,0.15,VWS V14.01,2013-01-17 00:56:00,
2013-01-16 20:00:00,33.2,32.7,29.71,WNW,287,2.0,7.0,98,0.00,,---,0.15,VWS V14.01,2013-01-17 01:00:00,
2013-01-16 20:01:00,33.2,32.7,29.71,WNW,302,4.0,7.0,98,0.00,,---,0.15,VWS V14.01,2013-01-17 01:01:00,
2013-01-16 20:06:00,33.2,32.7,29.71,West,281,4.0,5.0,98,0.00,,---,0.15,VWS V14.01,2013-01-17 01:06:00,
2013-01-16 20:11:00,33.5,33.0,29.71,West,260,2.0,6.0,98,0.00,,---,0.15,VWS V14.01,2013-01-17 01:11:00,
2013-01-16 20:16:00,33.5,33.0,29.71,WNW,300,4.0,6.0,98,0.00,,---,0.15,VWS V14.01,2013-01-17 01:16:00,
2013-01-16 20:21:00,33.5,33.0,29.71,WNW,287,2.0,6.0,98,0.00,,---,0.15,VWS V14.01,2013-01-17 01:21:00,
2013-01-16 20:26:00,33.5,33.0,29.71,West,271,2.0,6.0,98,0.00,,---,0.15,VWS V14.01,2013-01-17 01:26:00,
2013-01-16 20:30:00,33.5,33.0,29.72,NW,307,6.0,7.0,98,0.00,,---,0.15,VWS V14.01,2013-01-17 01:30:00,
2013-01-16 20:31:00,33.5,33.0,29.71,WSW,254,3.0,7.0,98,0.00,,---,0.15,VWS V14.01,2013-01-17 01:31:00,
2013-01-16 20:36:00,33.5,33.0,29.72,West,279,5.0,8.0,98,0.00,,---,0.15,VWS V14.01,2013-01-17 01:36:00,
2013-01-16 20:40:00,33.5,32.7,29.72,West,274,5.0,10.0,97,0.00,,---,0.15,VWS V14.01,2013-01-17 01:40:00,
2013-01-16 20:45:00,33.4,32.6,29.72,WNW,285,2.0,10.0,97,0.00,,---,0.15,VWS V14.01,2013-01-17 01:45:00,
2013-01-16 20:50:00,33.4,32.6,29.72,West,274,2.0,10.0,97,0.00,,---,0.15,VWS V14.01,2013-01-17 01:50:00,
2013-01-16 20:55:00,33.4,32.6,29.72,West,270,3.0,10.0,97,0.00,,---,0.15,VWS V14.01,2013-01-17 01:55:00,
2013-01-16 21:00:00,33.4,32.6,29.72,WNW,289,2.0,10.0,97,0.00,,---,0.15,VWS V14.01,2013-01-17 02:00:00,
2013-01-16 21:05:00,33.4,32.6,29.72,West,266,1.0,3.0,97,0.00,,---,0.15,VWS V14.01,2013-01-17 02:05:00,
2013-01-16 21:10:00,33.4,32.6,29.72,West,265,3.0,3.0,97,0.00,,---,0.15,VWS V14.01,2013-01-17 02:10:00,
2013-01-16 21:15:00,33.5,32.7,29.72,WNW,288,1.0,4.0,97,0.00,,---,0.15,VWS V14.01,2013-01-17 02:15:00,
2013-01-16 21:20:00,33.5,32.7,29.72,West,267,4.0,5.0,97,0.00,,---,0.15,VWS V14.01,2013-01-17 02:20:00,
2013-01-16 21:25:00,33.5,32.7,29.72,NW,306,2.0,6.0,97,0.00,,---,0.15,VWS V14.01,2013-01-17 02:25:00,
2013-01-16 21:30:00,33.5,32.7,29.72,WNW,287,3.0,6.0,97,0.00,,---,0.15,VWS V14.01,2013-01-17 02:30:00,
2013-01-16 21:35:00,33.5,32.7,29.72,West,273,3.0,5.0,97,0.00,,---,0.15,VWS V14.01,2013-01-17 02:35:00,
2013-01-16 21:40:00,33.7,32.9,29.72,West,281,3.0,6.0,97,0.00,,---,0.15,VWS V14.01,2013-01-17 02:40:00,
2013-01-16 21:45:00,33.7,32.9,29.72,West,267,3.0,6.0,97,0.00,,---,0.15,VWS V14.01,2013-01-17 02:45:00,
2013-01-16 21:50:00,33.7,32.9,29.71,West,274,2.0,6.0,97,0.00,,---,0.15,VWS V14.01,2013-01-17 02:50:00,
2013-01-16 21:55:00,33.7,32.7,29.71,West,268,2.0,6.0,96,0.00,,---,0.15,VWS V14.01,2013-01-17 02:55:00,
2013-01-16 22:00:00,33.7,32.9,29.71,West,275,3.0,6.0,97,0.00,,---,0.15,VWS V14.01,2013-01-17 03:00:00,
2013-01-16 22:05:00,33.7,32.7,29.72,West,259,3.0,5.0,96,0.00,,---,0.15,VWS V14.01,2013-01-17 03:05:00,
2013-01-16 22:10:00,33.7,32.7,29.72,West,266,4.0,6.0,96,0.00,,---,0.15,VWS V14.01,2013-01-17 03:10:00,
2013-01-16 22:15:00,33.7,32.7,29.72,WNW,290,4.0,6.0,96,0.01,,---,0.16,VWS V14.01,2013-01-17 03:15:00,
2013-01-16 22:20:00,33.7,32.7,29.72,West,261,3.0,6.0,96,0.01,,---,0.16,VWS V14.01,2013-01-17 03:20:00,
2013-01-16 22:25:00,33.7,32.7,29.72,West,262,2.0,6.0,96,0.01,,---,0.16,VWS V14.01,2013-01-17 03:25:00,
2013-01-16 22:30:00,33.7,32.7,29.72,West,262,2.0,6.0,96,0.01,,---,0.16,VWS V14.01,2013-01-17 03:30:00,
2013-01-16 22:35:00,33.7,32.7,29.71,West,262,0.0,3.0,96,0.01,,---,0.16,VWS V14.01,2013-01-17 03:35:00,
2013-01-16 22:40:00,33.5,32.5,29.71,West,271,1.0,4.0,96,0.01,,---,0.16,VWS V14.01,2013-01-17 03:40:00,
2013-01-16 22:45:00,33.4,32.4,29.71,West,271,0.0,4.0,96,0.01,,---,0.16,VWS V14.01,2013-01-17 03:45:00,
2013-01-16 22:50:00,33.2,32.2,29.72,WSW,252,3.0,5.0,96,0.01,,---,0.16,VWS V14.01,2013-01-17 03:50:00,
2013-01-16 22:55:00,33.2,32.2,29.72,SW,233,2.0,5.0,96,0.01,,---,0.16,VWS V14.01,2013-01-17 03:55:00,
2013-01-16 23:00:00,33.1,32.1,29.72,WSW,252,1.0,5.0,96,0.01,,---,0.16,VWS V14.01,2013-01-17 04:00:00,
2013-01-16 23:05:00,32.9,31.9,29.71,WSW,238,0.0,2.0,96,0.01,,---,0.16,VWS V14.01,2013-01-17 04:05:00,
2013-01-16 23:10:00,32.8,31.8,29.71,WSW,238,1.0,2.0,96,0.01,,---,0.16,VWS V14.01,2013-01-17 04:10:00,
2013-01-16 23:15:00,32.8,31.8,29.71,SW,226,0.0,3.0,96,0.01,,---,0.16,VWS V14.01,2013-01-17 04:15:00,
2013-01-16 23:20:00,32.8,31.8,29.71,SW,215,1.0,5.0,96,0.01,,---,0.16,VWS V14.01,2013-01-17 04:20:00,
2013-01-16 23:25:00,32.8,31.8,29.71,SW,215,0.0,5.0,96,0.01,,---,0.16,VWS V14.01,2013-01-17 04:25:00,
2013-01-16 23:30:00,32.8,32.0,29.71,WSW,243,3.0,5.0,97,0.01,,---,0.16,VWS V14.01,2013-01-17 04:30:00,
2013-01-16 23:35:00,32.9,32.1,29.71,WSW,239,0.0,3.0,97,0.00,,---,0.16,VWS V14.01,2013-01-17 04:35:00,
2013-01-16 23:40:00,32.9,32.1,29.71,SW,236,3.0,5.0,97,0.00,,---,0.16,VWS V14.01,2013-01-17 04:40:00,
2013-01-16 23:45:00,32.9,32.1,29.71,SSW,213,5.0,5.0,97,0.00,,---,0.16,VWS V14.01,2013-01-17 04:45:00,
2013-01-16 23:50:00,33.1,32.1,29.71,WSW,250,2.0,5.0,96,0.00,,---,0.16,VWS V14.01,2013-01-17 04:50:00,
2013-01-16 23:55:00,33.1,32.1,29.71,WSW,253,1.0,5.0,96,0.00,,---,0.16,VWS V14.01,2013-01-17 04:55:00,